Location: Joplin, MO
(37.0842°N, 94.5133°W)
Time: 16:46:39
(UTC+02:00)

Vanguard 2 - All Passes

Search period start: 30 March 2023 00:00
Search period end: 09 April 2023 00:00
Orbit: 552 x 2927 km, 32.9° (Epoch: 29 March)

Date Brightness Start Highest point End Pass type
(mag) Time Alt. Az. Time Alt. Az. Time Alt. Az.
30 Mar - 09:33:30 10° S 09:45:18 26° SE 09:58:14 10° E visible
30 Mar - 11:39:41 10° SW 11:56:02 54° SSE 12:11:51 10° E visible
30 Mar - 13:50:24 10° WSW 14:08:21 74° S 14:22:23 10° E daylight
30 Mar - 16:03:30 10° W 16:20:17 70° SSW 16:31:19 10° ESE daylight
30 Mar - 18:17:35 10° W 18:29:58 38° SW 18:38:01 10° SSE daylight
31 Mar - 09:48:07 10° SSW 10:01:09 33° SE 10:15:40 10° E visible
31 Mar - 11:55:33 10° SW 12:12:18 61° SSE 12:28:23 10° E visible
31 Mar - 14:06:50 10° W 14:24:50 76° S 14:38:45 10° E daylight
31 Mar - 16:20:06 10° W 16:36:34 64° SSW 16:47:25 10° ESE daylight
31 Mar - 18:34:32 10° W 18:45:45 30° SW 18:53:24 10° SSE daylight
01 Apr - 08:02:19 10° SSE 08:07:45 13° SE 08:13:39 10° ESE visible
01 Apr - 10:03:11 10° SSW 10:17:02 40° SE 10:32:41 10° E visible
01 Apr - 12:11:36 10° WSW 12:28:38 67° SSE 12:44:50 10° E visible
01 Apr - 14:23:20 10° W 14:41:19 76° S 14:55:03 10° E daylight
01 Apr - 16:36:43 10° W 16:52:45 57° SSW 17:03:24 10° SE daylight
01 Apr - 18:51:50 10° W 19:01:23 23° SW 19:08:21 10° S daylight
02 Apr - 08:14:42 10° S 08:23:22 19° SE 08:33:25 10° E visible
02 Apr - 10:18:36 10° SW 10:33:00 48° SSE 10:49:26 10° E visible
02 Apr - 12:27:47 10° WSW 12:45:02 72° SSE 13:01:16 10° E visible
02 Apr - 14:39:50 10° W 14:57:45 74° S 15:11:20 10° ESE daylight
02 Apr - 16:53:21 10° W 17:08:48 49° SSW 17:19:12 10° SE daylight
02 Apr - 19:09:46 10° W 19:16:56 17° SW 19:22:38 10° SSW daylight
03 Apr - 08:28:41 10° S 08:39:00 25° SE 08:51:30 10° E visible
03 Apr - 10:34:15 10° SW 10:49:05 55° SSE 11:06:03 10° E visible
03 Apr - 12:44:05 10° WSW 13:01:28 75° S 13:17:40 10° E visible
03 Apr - 14:56:20 10° W 15:14:07 70° SSW 15:27:30 10° ESE daylight
03 Apr - 17:10:05 10° W 17:24:41 41° SW 17:34:47 10° SSE daylight
03 Apr - 19:29:44 10° WSW 19:32:25 11° SW 19:34:53 10° SW daylight
04 Apr - 08:43:22 10° SSW 08:54:40 32° SE 09:08:53 10° E visible
04 Apr - 10:50:07 10° SW 11:05:15 62° SSE 11:22:35 10° E visible
04 Apr - 13:00:26 10° W 13:17:57 77° S 13:34:02 10° E visible
04 Apr - 15:12:51 10° W 15:30:24 65° SSW 15:43:34 10° ESE daylight
04 Apr - 17:27:00 10° W 17:40:27 34° SW 17:50:06 10° SSE daylight
05 Apr - 06:58:53 10° SE 07:02:02 11° SE 07:05:26 10° ESE visible
05 Apr - 08:58:29 10° SSW 09:10:25 40° SE 09:25:52 10° E visible
05 Apr - 11:06:07 10° WSW 11:21:31 68° SSE 11:39:03 10° E visible
05 Apr - 13:16:50 10° W 13:34:24 77° S 13:50:20 10° ESE visible
05 Apr - 15:29:22 10° W 15:46:34 58° SSW 15:59:30 10° SE daylight
05 Apr - 17:44:12 10° W 17:56:04 26° SW 18:05:00 10° S daylight
06 Apr - 07:10:39 10° SSE 07:17:30 17° SE 07:25:50 10° E visible
06 Apr - 09:13:54 10° SW 09:26:17 48° SSE 09:42:37 10° E visible
06 Apr - 11:22:16 10° WSW 11:37:52 73° SSE 11:55:29 10° E visible
06 Apr - 13:33:15 10° W 13:50:49 74° S 14:06:36 10° ESE visible
06 Apr - 15:45:57 10° W 16:02:36 51° SSW 16:15:14 10° SE daylight
06 Apr - 18:01:58 10° W 18:11:36 20° SW 18:19:19 10° S daylight
07 Apr - 07:24:35 10° S 07:33:00 23° SE 07:43:58 10° E visible
07 Apr - 09:29:33 10° SW 09:42:15 55° SSE 09:59:13 10° E visible
07 Apr - 11:38:28 10° WSW 11:54:15 76° S 12:11:53 10° E visible
07 Apr - 13:49:39 10° W 14:07:10 70° SSW 14:22:46 10° ESE daylight
07 Apr - 16:02:37 10° W 16:18:30 43° SW 16:30:45 10° SSE daylight
07 Apr - 18:20:59 10° WSW 18:27:05 14° SW 18:32:24 10° SSW daylight
08 Apr - 07:39:17 10° SSW 07:48:34 30° SE 08:01:20 10° E visible
08 Apr - 09:45:23 10° SW 09:58:20 62° SSE 10:15:44 10° E visible
08 Apr - 11:54:44 10° W 12:10:40 77° S 12:28:16 10° E visible
08 Apr - 14:06:04 10° W 14:23:26 65° SSW 14:38:48 10° ESE daylight
08 Apr - 16:19:28 10° W 16:34:16 35° SW 16:45:57 10° SSE daylight
